User: anonymous   Login
Location: Theydon Bois
(51.6750°N, 0.1050°E)
Time: 14:58:55
(UTC+00:00)
Language:

Cosmos 2237 Rocket - Orbit

View from above orbital plane
View from above orbital plane
View from above satellite
View from above satellite

Ground track
Ground track

The orbit data is extracted from the following two-line orbital elements,

1 22566U 93016B   18019.88666935 +.00000148 +00000-0 +10099-3 0  9995
2 22566 071.0091 332.0530 0009985 176.9750 183.1435 14.14957694281919
Epoch (UTC): 19 January 2018 21:16:48
Eccentricity: 0.0009985
inclination: 71.0091°
perigee height: 835 km
apogee height: 849 km
right ascension of ascending node: 332.0530°
argument of perigee: 176.9750°
revolutions per day: 14.14957694
mean anomaly at epoch: 183.1435°
orbit number at epoch: 28191

The dashed part of the orbit path shows where the satellite is in the earth's shadow,  

DLR